ARG1990 SAEZ-SKBO

Flight info

Callsign ARG1990
Flight time N/A
Altitude 39000
Route LAND1J LANDA UN785 GUA/N0480F380 UL417 DOLPU/N0480F400 UL417 PABON UP530 VVC DCT EGEPI EGEP5W
Aircraft B772/H-SDE2E3FGHIJ5LORVWXY/LB1D1

Departure

Time 2026-04-28 15:03
Airport Ezeiza International Airport - Ministro Pistarini (SAEZ)

Arrival

Time N/A
Airport El Dorado International Airport (SKBO)
Time Latitude Longitude Altitude Speed Heading
2026-04-28 14:25 -34.81666 -58.54260 79 ft 0 kts 13°
2026-04-28 14:48 -34.81688 -58.54266 41 ft 4 kts 13°
2026-04-28 14:48 -34.81715 -58.54274 97 ft 4 kts 14°
2026-04-28 14:48 -34.81726 -58.54278 79 ft 4 kts 15°
2026-04-28 14:49 -34.81741 -58.54283 89 ft 4 kts 20°
2026-04-28 14:49 -34.81760 -58.54295 85 ft 2 kts 46°
2026-04-28 14:49 -34.81768 -58.54312 85 ft 2 kts 86°
2026-04-28 14:49 -34.81768 -58.54326 85 ft 2 kts 95°
2026-04-28 14:50 -34.81767 -58.54339 85 ft 1 kts 98°
2026-04-28 14:50 -34.81767 -58.54340 84 ft 0 kts 98°
2026-04-28 14:53 -34.81768 -58.54328 84 ft 4 kts 98°
2026-04-28 14:53 -34.81773 -58.54289 84 ft 5 kts 98°
2026-04-28 14:53 -34.81777 -58.54250 82 ft 5 kts 98°
2026-04-28 14:54 -34.81782 -58.54211 81 ft 5 kts 98°
2026-04-28 14:54 -34.81787 -58.54171 82 ft 5 kts 98°
2026-04-28 14:54 -34.81791 -58.54132 83 ft 5 kts 98°
2026-04-28 14:54 -34.81793 -58.54092 83 ft 5 kts 88°
2026-04-28 14:55 -34.81787 -58.54048 82 ft 7 kts 76°
2026-04-28 14:55 -34.81758 -58.53971 85 ft 11 kts 60°
2026-04-28 14:55 -34.81719 -58.53887 82 ft 11 kts 60°
2026-04-28 14:55 -34.81701 -58.53795 82 ft 11 kts 101°
2026-04-28 14:56 -34.81750 -58.53722 85 ft 11 kts 145°
2026-04-28 14:56 -34.81821 -58.53678 84 ft 11 kts 155°
2026-04-28 14:56 -34.81890 -58.53630 82 ft 11 kts 136°
2026-04-28 14:56 -34.81922 -58.53544 81 ft 11 kts 104°
2026-04-28 14:57 -34.81942 -58.53450 83 ft 11 kts 104°
2026-04-28 14:57 -34.81955 -58.53386 83 ft 11 kts 104°
2026-04-28 14:57 -34.81978 -58.53261 83 ft 11 kts 103°
2026-04-28 14:57 -34.81997 -58.53167 83 ft 11 kts 104°
2026-04-28 14:58 -34.82019 -58.53056 81 ft 17 kts 104°
2026-04-28 14:58 -34.82051 -58.52902 83 ft 20 kts 104°
2026-04-28 14:58 -34.82084 -58.52741 83 ft 20 kts 104°
2026-04-28 14:58 -34.82116 -58.52581 80 ft 20 kts 102°
2026-04-28 14:59 -34.82146 -58.52419 80 ft 20 kts 104°
2026-04-28 14:59 -34.82178 -58.52259 80 ft 20 kts 104°
2026-04-28 14:59 -34.82211 -58.52098 83 ft 20 kts 104°
2026-04-28 14:59 -34.82245 -58.51937 80 ft 20 kts 104°
2026-04-28 15:00 -34.82266 -58.51831 83 ft 10 kts 103°
2026-04-28 15:00 -34.82304 -58.51786 83 ft 8 kts 176°
2026-04-28 15:00 -34.82361 -58.51797 84 ft 8 kts 193°
2026-04-28 15:00 -34.82417 -58.51813 81 ft 8 kts 193°
2026-04-28 15:01 -34.82472 -58.51829 82 ft 8 kts 193°
2026-04-28 15:01 -34.82519 -58.51863 84 ft 8 kts 244°
2026-04-28 15:01 -34.82518 -58.51924 83 ft 0 kts 282°
2026-04-28 15:02 -34.82493 -58.52064 79 ft 50 kts 282°
2026-04-28 15:03 -34.82363 -58.52792 82 ft 123 kts 282°
2026-04-28 15:03 -34.82140 -58.54045 240 ft 165 kts 283°
2026-04-28 15:03 -34.81894 -58.55400 1109 ft 161 kts 285°
2026-04-28 15:03 -34.81635 -58.56670 2140 ft 152 kts 285°
2026-04-28 15:04 -34.81365 -58.58043 2434 ft 182 kts 284°
2026-04-28 15:04 -34.81056 -58.59572 2911 ft 192 kts 279°
2026-04-28 15:04 -34.81161 -58.61276 3122 ft 216 kts 249°
2026-04-28 15:04 -34.82060 -58.62820 3496 ft 232 kts 230°
2026-04-28 15:05 -34.83222 -58.64247 3980 ft 242 kts 229°
2026-04-28 15:05 -34.84360 -58.65664 4985 ft 227 kts 230°
2026-04-28 15:05 -34.85430 -58.67051 5779 ft 222 kts 232°
2026-04-28 15:05 -34.86450 -58.68432 6528 ft 218 kts 232°
2026-04-28 15:06 -34.87571 -58.69688 7055 ft 225 kts 214°
2026-04-28 15:06 -34.89108 -58.70282 7540 ft 238 kts 195°
2026-04-28 15:06 -34.90754 -58.70564 8036 ft 236 kts 200°
2026-04-28 15:06 -34.92403 -58.70877 8435 ft 248 kts 185°
2026-04-28 15:07 -34.94121 -58.70207 8738 ft 277 kts 148°
2026-04-28 15:07 -34.95337 -58.68309 9108 ft 297 kts 114°
2026-04-28 15:07 -34.95895 -58.65863 9526 ft 300 kts 109°
2026-04-28 15:07 -34.96864 -58.63623 9798 ft 298 kts 128°
2026-04-28 15:08 -34.97788 -58.61329 10168 ft 309 kts 104°
2026-04-28 15:08 -34.97857 -58.58742 10691 ft 312 kts 78°
2026-04-28 15:08 -34.96973 -58.56358 11249 ft 310 kts 45°
2026-04-28 15:08 -34.95251 -58.54861 11693 ft 307 kts 13°
2026-04-28 15:09 -34.93127 -58.54600 11847 ft 312 kts 343°
2026-04-28 15:09 -34.91027 -58.55345 11951 ft 322 kts 336°
2026-04-28 15:09 -34.88766 -58.55913 12038 ft 348 kts 354°
2026-04-28 15:09 -34.87119 -58.55732 12166 ft 371 kts
2026-04-28 15:10 -34.83684 -58.54405 12715 ft 396 kts 16°
2026-04-28 15:10 -34.81033 -58.53434 13263 ft 397 kts
2026-04-28 15:10 -34.78264 -58.53327 13868 ft 398 kts 352°
2026-04-28 15:10 -34.75524 -58.53547 14573 ft 400 kts 351°
2026-04-28 15:11 -34.72746 -58.53779 15363 ft 401 kts 351°
2026-04-28 15:11 -34.69948 -58.53983 16144 ft 404 kts 351°
2026-04-28 15:11 -34.67123 -58.54155 16826 ft 408 kts 352°
2026-04-28 15:11 -34.64270 -58.54302 17473 ft 412 kts 352°
2026-04-28 15:12 -34.61390 -58.54434 18139 ft 415 kts 352°
2026-04-28 15:12 -34.58488 -58.54558 18724 ft 418 kts 352°
2026-04-28 15:12 -34.55573 -58.54678 19285 ft 421 kts 352°
2026-04-28 15:12 -34.52631 -58.54799 19835 ft 423 kts 352°
2026-04-28 15:13 -34.49688 -58.54920 20377 ft 426 kts 352°
2026-04-28 15:13 -34.46745 -58.55041 20893 ft 429 kts 352°
2026-04-28 15:13 -34.43752 -58.55166 21420 ft 431 kts 351°
2026-04-28 15:13 -34.40696 -58.55294 21934 ft 434 kts 351°
2026-04-28 15:14 -34.37649 -58.55421 22451 ft 437 kts 351°
2026-04-28 15:14 -34.34618 -58.55547 22954 ft 440 kts 351°
2026-04-28 15:14 -34.31541 -58.55676 23448 ft 443 kts 351°
2026-04-28 15:14 -34.28441 -58.55805 23898 ft 445 kts 351°
2026-04-28 15:15 -34.25375 -58.55932 24328 ft 447 kts 351°
2026-04-28 15:15 -34.23260 -58.56019 24653 ft 447 kts 351°
2026-04-28 15:15 -34.19110 -58.56191 25278 ft 448 kts 351°
2026-04-28 15:15 -34.16030 -58.56319 25713 ft 449 kts 351°
2026-04-28 15:16 -34.12874 -58.56451 26141 ft 450 kts 350°
2026-04-28 15:16 -34.09737 -58.56589 26560 ft 452 kts 350°
2026-04-28 15:16 -34.06585 -58.56740 26973 ft 453 kts 350°
2026-04-28 15:16 -34.03431 -58.56895 27370 ft 454 kts 350°
2026-04-28 15:17 -34.00269 -58.57049 27777 ft 456 kts 350°
2026-04-28 15:17 -33.97108 -58.57201 28158 ft 457 kts 350°
2026-04-28 15:17 -33.93920 -58.57353 28527 ft 459 kts 350°
2026-04-28 15:17 -33.90713 -58.57505 28881 ft 460 kts 350°
2026-04-28 15:18 -33.87505 -58.57653 29205 ft 462 kts 350°
2026-04-28 15:18 -33.84309 -58.57794 29513 ft 463 kts 350°
2026-04-28 15:18 -33.81076 -58.57934 29808 ft 465 kts 350°
2026-04-28 15:18 -33.77849 -58.58073 30088 ft 466 kts 350°
2026-04-28 15:19 -33.74590 -58.58214 30331 ft 467 kts 350°
2026-04-28 15:19 -33.71350 -58.58355 30525 ft 469 kts 350°
2026-04-28 15:19 -33.68093 -58.58496 30748 ft 469 kts 350°
2026-04-28 15:19 -33.64811 -58.58638 31024 ft 469 kts 350°
2026-04-28 15:20 -33.61542 -58.58780 31308 ft 469 kts 350°
2026-04-28 15:20 -33.58269 -58.58921 31586 ft 468 kts 350°
2026-04-28 15:20 -33.55048 -58.59061 31854 ft 468 kts 350°
2026-04-28 15:20 -33.51789 -58.59203 32126 ft 468 kts 350°
2026-04-28 15:21 -33.48528 -58.59345 32400 ft 468 kts 350°
2026-04-28 15:21 -33.45288 -58.59485 32678 ft 467 kts 350°
2026-04-28 15:21 -33.42040 -58.59626 32952 ft 467 kts 350°
2026-04-28 15:21 -33.38772 -58.59768 33232 ft 467 kts 350°
2026-04-28 15:22 -33.35552 -58.59908 33510 ft 467 kts 349°
2026-04-28 15:22 -33.32279 -58.60050 33782 ft 466 kts 349°
2026-04-28 15:22 -33.29060 -58.60189 34066 ft 466 kts 349°
2026-04-28 15:22 -33.25805 -58.60330 34307 ft 466 kts 349°
2026-04-28 15:23 -33.22543 -58.60471 34509 ft 466 kts 349°
2026-04-28 15:23 -33.19330 -58.60610 34729 ft 466 kts 349°
2026-04-28 15:23 -33.16057 -58.60751 34968 ft 465 kts 349°
2026-04-28 15:23 -33.12826 -58.60890 35194 ft 465 kts 350°
2026-04-28 15:24 -33.09617 -58.61029 35422 ft 464 kts 350°
2026-04-28 15:24 -33.06390 -58.61175 35649 ft 460 kts 348°
2026-04-28 15:24 -33.03295 -58.61888 35699 ft 445 kts 332°
2026-04-28 15:24 -33.00583 -58.63553 35850 ft 434 kts 320°
2026-04-28 15:25 -32.98977 -58.64985 35996 ft 429 kts 314°
2026-04-28 15:25 -32.96971 -58.67551 36204 ft 419 kts 303°
2026-04-28 15:25 -32.94681 -58.71285 36304 ft 422 kts 303°
2026-04-28 15:25 -32.92950 -58.74121 36501 ft 422 kts 303°
2026-04-28 15:26 -32.91797 -58.76001 36668 ft 422 kts 303°
2026-04-28 15:26 -32.90059 -58.78811 36890 ft 421 kts 303°
2026-04-28 15:26 -32.88306 -58.81625 37070 ft 421 kts 303°
2026-04-28 15:26 -32.86547 -58.84432 37258 ft 422 kts 303°
2026-04-28 15:27 -32.84795 -58.87218 37438 ft 422 kts 303°
2026-04-28 15:27 -32.83041 -58.90002 37633 ft 422 kts 304°
2026-04-28 15:27 -32.81284 -58.92787 37814 ft 422 kts 304°
2026-04-28 15:27 -32.79515 -58.95588 37993 ft 422 kts 304°
2026-04-28 15:28 -32.77747 -58.98389 38080 ft 424 kts 304°
2026-04-28 15:28 -32.74203 -59.03995 38131 ft 426 kts 304°
2026-04-28 15:29 -32.70659 -59.09591 38131 ft 423 kts 304°
2026-04-28 15:29 -32.67120 -59.15172 38133 ft 419 kts 304°
2026-04-28 15:30 -32.63633 -59.20665 38134 ft 417 kts 304°
2026-04-28 15:30 -32.60154 -59.26138 38140 ft 416 kts 304°
2026-04-28 15:31 -32.56657 -59.31634 38149 ft 418 kts 304°
2026-04-28 15:31 -32.53130 -59.37164 38140 ft 420 kts 304°
2026-04-28 15:32 -32.49596 -59.42680 38138 ft 422 kts 304°
2026-04-28 15:32 -32.46032 -59.48230 38141 ft 423 kts 304°
2026-04-28 15:33 -32.42484 -59.53749 38140 ft 424 kts 304°
2026-04-28 15:33 -32.38884 -59.59343 38139 ft 425 kts 304°
2026-04-28 15:34 -32.35305 -59.64897 38139 ft 426 kts 304°
2026-04-28 15:34 -32.31695 -59.70491 38139 ft 426 kts 304°
2026-04-28 15:35 -32.28107 -59.76043 38139 ft 426 kts 304°
2026-04-28 15:35 -32.22702 -59.84389 38137 ft 425 kts 304°
2026-04-28 15:36 -32.19109 -59.89929 38141 ft 425 kts 304°
2026-04-28 15:36 -32.15502 -59.95481 38159 ft 425 kts 304°
2026-04-28 15:37 -32.11922 -60.00984 38135 ft 425 kts 304°
2026-04-28 15:37 -32.08316 -60.06520 38135 ft 426 kts 304°
2026-04-28 15:38 -32.04691 -60.12075 38150 ft 426 kts 304°
2026-04-28 15:38 -32.01086 -60.17593 38129 ft 426 kts 304°
2026-04-28 15:39 -31.97463 -60.23130 38148 ft 426 kts 304°
2026-04-28 15:39 -31.93834 -60.28669 38151 ft 427 kts 304°
2026-04-28 15:40 -31.90201 -60.34206 38155 ft 427 kts 304°
2026-04-28 15:40 -31.86549 -60.39767 38158 ft 428 kts 304°
2026-04-28 15:41 -31.82804 -60.45168 38158 ft 431 kts 313°
2026-04-28 15:41 -31.77905 -60.49417 38158 ft 440 kts 324°
2026-04-28 15:42 -31.72231 -60.52255 38147 ft 448 kts 334°
2026-04-28 15:42 -31.66337 -60.54627 38148 ft 448 kts 335°
2026-04-28 15:43 -31.60445 -60.57014 38149 ft 447 kts 334°
2026-04-28 15:43 -31.54561 -60.59448 38150 ft 447 kts 334°
2026-04-28 15:44 -31.48729 -60.61878 38141 ft 447 kts 334°
2026-04-28 15:44 -31.42876 -60.64316 38141 ft 446 kts 334°
2026-04-28 15:45 -31.37027 -60.66746 38132 ft 446 kts 334°
2026-04-28 15:45 -31.31172 -60.69175 38136 ft 445 kts 334°
2026-04-28 15:46 -31.25329 -60.71595 38147 ft 445 kts 334°
2026-04-28 15:46 -31.19516 -60.74001 38141 ft 444 kts 333°
2026-04-28 15:47 -31.13706 -60.76401 38134 ft 443 kts 333°
2026-04-28 15:47 -31.07888 -60.78802 38136 ft 443 kts 333°
2026-04-28 15:48 -31.02068 -60.81201 38137 ft 442 kts 333°
2026-04-28 15:48 -30.96286 -60.83582 38141 ft 441 kts 333°
2026-04-28 15:49 -30.90476 -60.85970 38142 ft 441 kts 333°
2026-04-28 15:49 -30.84695 -60.88343 38141 ft 440 kts 333°
2026-04-28 15:50 -30.78948 -60.90701 38144 ft 439 kts 333°
2026-04-28 15:50 -30.73197 -60.93058 38150 ft 439 kts 333°
2026-04-28 15:51 -30.67408 -60.95428 38152 ft 438 kts 333°
2026-04-28 15:51 -30.61661 -60.97777 38147 ft 438 kts 333°
2026-04-28 15:52 -30.55907 -61.00127 38153 ft 438 kts 333°
2026-04-28 15:52 -30.50177 -61.02464 38158 ft 437 kts 333°
2026-04-28 15:53 -30.44434 -61.04804 38161 ft 437 kts 333°
2026-04-28 15:53 -30.38666 -61.07150 38158 ft 437 kts 333°
2026-04-28 15:54 -30.32957 -61.09466 38160 ft 437 kts 333°
2026-04-28 15:54 -30.27186 -61.11803 38165 ft 437 kts 333°
2026-04-28 15:55 -30.21472 -61.14114 38165 ft 437 kts 333°
2026-04-28 15:55 -30.15708 -61.16445 38164 ft 437 kts 333°
2026-04-28 15:56 -30.09972 -61.18760 38170 ft 437 kts 333°
2026-04-28 15:56 -30.04224 -61.21078 38161 ft 437 kts 333°
2026-04-28 15:57 -29.98486 -61.23389 38168 ft 437 kts 333°
2026-04-28 15:57 -29.92742 -61.25699 38168 ft 436 kts 333°
2026-04-28 15:58 -29.87031 -61.27994 38169 ft 436 kts 333°
2026-04-28 15:58 -29.81289 -61.30298 38169 ft 435 kts 333°
2026-04-28 15:59 -29.76530 -61.32206 38181 ft 435 kts 333°
2026-04-28 15:59 -29.69870 -61.34872 38176 ft 435 kts 333°
2026-04-28 16:00 -29.65094 -61.36782 38169 ft 434 kts 333°
2026-04-28 16:00 -29.58448 -61.39436 38173 ft 434 kts 333°
2026-04-28 16:01 -29.53679 -61.41339 38166 ft 434 kts 333°
2026-04-28 16:01 -29.47991 -61.43605 38168 ft 433 kts 333°
2026-04-28 16:02 -29.42292 -61.45873 38170 ft 433 kts 333°
2026-04-28 16:02 -29.36592 -61.48139 38169 ft 433 kts 333°
2026-04-28 16:03 -29.30869 -61.50412 38169 ft 433 kts 333°
2026-04-28 16:03 -29.25183 -61.52667 38166 ft 433 kts 333°
2026-04-28 16:04 -29.19497 -61.54919 38164 ft 433 kts 333°
2026-04-28 16:04 -29.13794 -61.57177 38204 ft 434 kts 338°
2026-04-28 16:05 -29.10895 -61.58285 38061 ft 443 kts 342°
2026-04-28 16:05 -29.07978 -61.59386 38030 ft 446 kts 340°
2026-04-28 16:05 -29.02075 -61.61850 38017 ft 458 kts 340°
2026-04-28 16:06 -28.95931 -61.64261 38017 ft 469 kts 341°
2026-04-28 16:06 -28.89721 -61.66676 38012 ft 478 kts 341°
2026-04-28 16:07 -28.83337 -61.69180 38012 ft 486 kts 341°
2026-04-28 16:08 -28.73657 -61.72984 38009 ft 493 kts 341°
2026-04-28 16:08 -28.67182 -61.75510 38003 ft 496 kts 341°
2026-04-28 16:09 -28.57371 -61.79314 37997 ft 494 kts 341°
2026-04-28 16:10 -28.47656 -61.83081 37998 ft 490 kts 341°
2026-04-28 16:10 -28.37986 -61.86850 37999 ft 487 kts 341°
2026-04-28 16:11 -28.25198 -61.91832 38001 ft 484 kts 341°
2026-04-28 16:12 -28.15673 -61.95532 38002 ft 485 kts 341°
2026-04-28 16:13 -28.06073 -61.99253 38003 ft 486 kts 341°
2026-04-28 16:14 -27.93252 -62.04212 38002 ft 488 kts 341°
2026-04-28 16:15 -27.80373 -62.09182 38002 ft 489 kts 341°
2026-04-28 16:15 -27.73951 -62.11655 38001 ft 489 kts 341°
2026-04-28 16:16 -27.64296 -62.15368 38001 ft 489 kts 341°
2026-04-28 16:17 -27.54646 -62.19072 38001 ft 489 kts 341°
2026-04-28 16:17 -27.48176 -62.21551 38001 ft 488 kts 341°
2026-04-28 16:18 -27.41778 -62.24000 38001 ft 488 kts 341°
2026-04-28 16:18 -27.35352 -62.26457 38001 ft 488 kts 341°
2026-04-28 16:19 -27.28880 -62.28929 38001 ft 488 kts 341°
2026-04-28 16:19 -27.22458 -62.31377 38001 ft 488 kts 341°
2026-04-28 16:20 -27.16035 -62.33819 38001 ft 487 kts 341°
2026-04-28 16:20 -27.09629 -62.36252 38001 ft 487 kts 341°
2026-04-28 16:21 -27.03179 -62.38700 38001 ft 488 kts 341°
2026-04-28 16:21 -26.96788 -62.41124 38001 ft 488 kts 341°
2026-04-28 16:22 -26.90334 -62.43568 38001 ft 488 kts 341°
2026-04-28 16:22 -26.83905 -62.46000 38001 ft 488 kts 341°
2026-04-28 16:23 -26.77492 -62.48423 38001 ft 488 kts 341°
2026-04-28 16:23 -26.71066 -62.50847 38001 ft 488 kts 341°
2026-04-28 16:24 -26.64594 -62.53287 38001 ft 488 kts 341°
2026-04-28 16:24 -26.58176 -62.55703 38001 ft 488 kts 341°
2026-04-28 16:25 -26.51748 -62.58120 38001 ft 488 kts 341°
2026-04-28 16:25 -26.45283 -62.60548 38001 ft 488 kts 341°
2026-04-28 16:26 -26.38846 -62.62962 38001 ft 488 kts 341°
2026-04-28 16:26 -26.32410 -62.65374 38001 ft 488 kts 341°
2026-04-28 16:27 -26.25972 -62.67783 38001 ft 488 kts 341°
2026-04-28 16:28 -26.16348 -62.71379 38001 ft 488 kts 341°
2026-04-28 16:28 -26.09914 -62.73780 38001 ft 488 kts 341°
2026-04-28 16:29 -26.00251 -62.77381 38001 ft 488 kts 341°
2026-04-28 16:30 -25.90587 -62.80976 38001 ft 488 kts 341°
2026-04-28 16:30 -25.84175 -62.83358 38001 ft 488 kts 341°
2026-04-28 16:31 -25.77732 -62.85749 38001 ft 488 kts 341°
2026-04-28 16:31 -25.71274 -62.88107 37999 ft 488 kts 342°
2026-04-28 16:32 -25.64791 -62.90361 38002 ft 488 kts 342°
2026-04-28 16:32 -25.55066 -62.93722 38001 ft 488 kts 342°
2026-04-28 16:33 -25.50774 -62.95214 38001 ft 488 kts 342°
2026-04-28 16:33 -25.42108 -62.98231 38001 ft 488 kts 342°
2026-04-28 16:34 -25.35675 -63.00468 38001 ft 488 kts 342°
2026-04-28 16:34 -25.29183 -63.02722 38001 ft 488 kts 342°
2026-04-28 16:35 -25.22698 -63.04971 38001 ft 488 kts 342°
2026-04-28 16:35 -25.16214 -63.07217 38001 ft 488 kts 342°
2026-04-28 16:36 -25.09724 -63.09463 38001 ft 488 kts 342°
2026-04-28 16:36 -25.03238 -63.11705 38001 ft 488 kts 342°
2026-04-28 16:37 -24.96795 -63.13929 38001 ft 488 kts 342°
2026-04-28 16:38 -24.87071 -63.17282 38001 ft 488 kts 342°
2026-04-28 16:38 -24.80586 -63.19515 38001 ft 488 kts 342°
2026-04-28 16:39 -24.74097 -63.21747 38001 ft 488 kts 342°
2026-04-28 16:39 -24.68700 -63.23602 38001 ft 488 kts 342°
2026-04-28 16:40 -24.62225 -63.25825 38001 ft 488 kts 342°
2026-04-28 16:40 -24.55736 -63.28049 38001 ft 488 kts 342°
2026-04-28 16:41 -24.49250 -63.30272 38001 ft 488 kts 342°
2026-04-28 16:41 -24.42755 -63.32495 38001 ft 488 kts 342°
2026-04-28 16:42 -24.36262 -63.34717 38001 ft 488 kts 342°
2026-04-28 16:42 -24.29772 -63.36934 38001 ft 488 kts 342°
2026-04-28 16:43 -24.23283 -63.39149 38002 ft 488 kts 342°
2026-04-28 16:43 -24.16900 -63.41326 38001 ft 488 kts 342°
2026-04-28 16:44 -24.11182 -63.43273 38002 ft 488 kts 342°
2026-04-28 16:44 -24.04698 -63.45480 38001 ft 488 kts 342°
2026-04-28 16:45 -23.98203 -63.47687 38001 ft 488 kts 342°
2026-04-28 16:45 -23.91712 -63.49891 38001 ft 488 kts 342°
2026-04-28 16:46 -23.85228 -63.52091 38002 ft 488 kts 342°
2026-04-28 16:46 -23.78741 -63.54289 38001 ft 488 kts 342°
2026-04-28 16:47 -23.72242 -63.56489 38002 ft 488 kts 342°
2026-04-28 16:47 -23.65756 -63.58682 38001 ft 488 kts 342°
2026-04-28 16:48 -23.59264 -63.60875 38001 ft 488 kts 342°
2026-04-28 16:48 -23.52776 -63.63064 38002 ft 488 kts 342°
2026-04-28 16:49 -23.46322 -63.65240 38001 ft 488 kts 342°
2026-04-28 16:49 -23.39835 -63.67424 38003 ft 488 kts 342°
2026-04-28 16:50 -23.33337 -63.69610 38000 ft 488 kts 342°
2026-04-28 16:50 -23.26837 -63.71795 38002 ft 488 kts 342°
2026-04-28 16:51 -23.20339 -63.73976 38001 ft 488 kts 342°
2026-04-28 16:51 -23.13844 -63.76154 38002 ft 488 kts 342°
2026-04-28 16:52 -23.07344 -63.78332 38002 ft 488 kts 342°
2026-04-28 16:52 -23.00889 -63.80492 38000 ft 488 kts 342°
2026-04-28 16:53 -22.94393 -63.82664 38001 ft 488 kts 342°
2026-04-28 16:53 -22.87858 -63.84848 38001 ft 488 kts 342°
2026-04-28 16:54 -22.81353 -63.87018 38002 ft 488 kts 342°
2026-04-28 16:54 -22.74896 -63.89171 38000 ft 488 kts 342°
2026-04-28 16:55 -22.68396 -63.91335 38002 ft 488 kts 342°
2026-04-28 16:55 -22.61898 -63.93497 38001 ft 488 kts 342°
2026-04-28 16:56 -22.55402 -63.95656 38001 ft 488 kts 342°
2026-04-28 16:56 -22.48903 -63.97814 38001 ft 488 kts 342°
2026-04-28 16:57 -22.42394 -63.99974 38000 ft 488 kts 342°
2026-04-28 16:57 -22.35906 -64.02124 38003 ft 488 kts 342°
2026-04-28 16:58 -22.29413 -64.04274 38001 ft 488 kts 342°
2026-04-28 16:58 -22.22954 -64.06407 38001 ft 488 kts 343°
2026-04-28 16:59 -22.16426 -64.08460 38001 ft 488 kts 343°
2026-04-28 16:59 -22.09889 -64.10475 38001 ft 488 kts 343°
2026-04-28 17:00 -22.03357 -64.12497 38001 ft 488 kts 343°
2026-04-28 17:00 -21.96816 -64.14532 38001 ft 488 kts 343°
2026-04-28 17:01 -21.90283 -64.16565 38002 ft 488 kts 343°
2026-04-28 17:01 -21.83748 -64.18597 38000 ft 488 kts 343°
2026-04-28 17:02 -21.77254 -64.20612 38002 ft 488 kts 343°
2026-04-28 17:02 -21.70718 -64.22639 38002 ft 488 kts 343°
2026-04-28 17:03 -21.60921 -64.25674 37997 ft 489 kts 343°
2026-04-28 17:03 -21.54381 -64.27697 38002 ft 488 kts 343°
2026-04-28 17:04 -21.44586 -64.30725 38002 ft 489 kts 343°
2026-04-28 17:05 -21.34776 -64.33754 38001 ft 489 kts 343°
2026-04-28 17:06 -21.24986 -64.36828 38006 ft 489 kts 343°
2026-04-28 17:06 -21.15225 -64.39899 38002 ft 489 kts 343°
2026-04-28 17:07 -21.08703 -64.41945 38002 ft 489 kts 343°
2026-04-28 17:07 -21.02178 -64.43989 38004 ft 489 kts 343°
2026-04-28 17:08 -20.95642 -64.46035 38000 ft 488 kts 343°
2026-04-28 17:08 -20.89109 -64.48073 38005 ft 488 kts 343°
2026-04-28 17:09 -20.82579 -64.50095 37997 ft 488 kts 343°
2026-04-28 17:09 -20.76050 -64.52114 38001 ft 488 kts 343°
2026-04-28 17:10 -20.69518 -64.54135 38005 ft 488 kts 343°
2026-04-28 17:10 -20.63042 -64.56139 37998 ft 488 kts 343°
2026-04-28 17:11 -20.56504 -64.58158 38002 ft 488 kts 343°
2026-04-28 17:11 -20.49973 -64.60175 38000 ft 488 kts 343°
2026-04-28 17:12 -20.43448 -64.62188 38003 ft 488 kts 343°
2026-04-28 17:12 -20.36916 -64.64201 38000 ft 488 kts 343°
2026-04-28 17:13 -20.30388 -64.66219 38004 ft 488 kts 343°
2026-04-28 17:13 -20.23855 -64.68264 37999 ft 488 kts 343°
2026-04-28 17:14 -20.17381 -64.70293 38001 ft 488 kts 343°
2026-04-28 17:14 -20.10857 -64.72332 38062 ft 490 kts 343°
2026-04-28 17:15 -20.07573 -64.73357 38263 ft 490 kts 343°
2026-04-28 17:15 -20.04309 -64.74375 38496 ft 488 kts 343°
2026-04-28 17:15 -20.01057 -64.75390 38733 ft 487 kts 343°
2026-04-28 17:15 -19.97791 -64.76407 38942 ft 487 kts 343°
2026-04-28 17:16 -19.94560 -64.77414 39110 ft 487 kts 343°
2026-04-28 17:16 -19.91305 -64.78428 39269 ft 487 kts 343°
2026-04-28 17:16 -19.88046 -64.79442 39458 ft 487 kts 343°
2026-04-28 17:16 -19.84794 -64.80454 39618 ft 487 kts 343°
2026-04-28 17:17 -19.81538 -64.81466 39776 ft 487 kts 343°
2026-04-28 17:17 -19.78278 -64.82480 39897 ft 488 kts 343°
2026-04-28 17:17 -19.71745 -64.84510 39994 ft 490 kts 343°
2026-04-28 17:18 -19.65193 -64.86544 39992 ft 489 kts 343°
2026-04-28 17:18 -19.58715 -64.88553 39996 ft 487 kts 343°
2026-04-28 17:19 -19.52222 -64.90566 40003 ft 485 kts 343°
2026-04-28 17:19 -19.45740 -64.92573 40000 ft 485 kts 343°
2026-04-28 17:20 -19.40323 -64.94250 40000 ft 484 kts 343°
2026-04-28 17:20 -19.32787 -64.96589 40002 ft 485 kts 343°
2026-04-28 17:21 -19.26313 -64.98610 40003 ft 485 kts 343°
2026-04-28 17:22 -19.16576 -65.01645 40000 ft 487 kts 343°
2026-04-28 17:22 -19.10076 -65.03680 40005 ft 488 kts 343°
2026-04-28 17:23 -19.01405 -65.06407 40003 ft 488 kts 343°
2026-04-28 17:23 -18.94883 -65.08454 40005 ft 489 kts 343°
2026-04-28 17:24 -18.88367 -65.10496 40000 ft 489 kts 343°
2026-04-28 17:24 -18.81844 -65.12537 39999 ft 489 kts 343°
2026-04-28 17:25 -18.72069 -65.15589 40003 ft 488 kts 343°
2026-04-28 17:26 -18.65563 -65.17620 40002 ft 488 kts 343°
2026-04-28 17:26 -18.59099 -65.19637 40001 ft 487 kts 343°
2026-04-28 17:27 -18.52599 -65.21663 40004 ft 487 kts 343°
2026-04-28 17:27 -18.46095 -65.23688 39998 ft 487 kts 343°
2026-04-28 17:28 -18.39593 -65.25712 39998 ft 487 kts 343°
2026-04-28 17:28 -18.29842 -65.28744 40000 ft 487 kts 343°
2026-04-28 17:29 -18.23342 -65.30762 40004 ft 487 kts 343°
2026-04-28 17:30 -18.13586 -65.33790 40001 ft 487 kts 343°
2026-04-28 17:30 -18.03833 -65.36813 40002 ft 487 kts 343°
2026-04-28 17:31 -17.94070 -65.39835 39999 ft 487 kts 343°
2026-04-28 17:32 -17.84308 -65.42854 40003 ft 487 kts 343°
2026-04-28 17:32 -17.77838 -65.44854 39999 ft 487 kts 343°
2026-04-28 17:33 -17.71325 -65.46864 40001 ft 488 kts 343°
2026-04-28 17:33 -17.65915 -65.48533 40004 ft 487 kts 343°
2026-04-28 17:34 -17.58296 -65.50864 40000 ft 488 kts 343°
2026-04-28 17:34 -17.51775 -65.52856 40000 ft 488 kts 343°
2026-04-28 17:35 -17.45252 -65.54851 40003 ft 487 kts 343°
2026-04-28 17:35 -17.38745 -65.56868 40004 ft 488 kts 343°
2026-04-28 17:36 -17.32238 -65.58896 39998 ft 488 kts 343°
2026-04-28 17:36 -17.25736 -65.60916 40003 ft 487 kts 343°
2026-04-28 17:37 -17.19272 -65.62921 39999 ft 487 kts 343°
2026-04-28 17:37 -17.12776 -65.64934 40004 ft 487 kts 343°
2026-04-28 17:38 -17.06270 -65.66949 39999 ft 487 kts 343°
2026-04-28 17:38 -16.99772 -65.68972 40005 ft 487 kts 343°
2026-04-28 17:39 -16.93265 -65.70999 39998 ft 487 kts 343°
2026-04-28 17:40 -16.83522 -65.74030 39999 ft 487 kts 343°
2026-04-28 17:40 -16.77016 -65.76061 39999 ft 487 kts 343°
2026-04-28 17:41 -16.70518 -65.78097 40004 ft 487 kts 343°
2026-04-28 17:41 -16.64029 -65.80129 40000 ft 487 kts 343°
2026-04-28 17:42 -16.57549 -65.82155 40001 ft 487 kts 343°
2026-04-28 17:42 -16.51052 -65.84185 40001 ft 488 kts 343°
2026-04-28 17:43 -16.44552 -65.86214 40001 ft 488 kts 343°
2026-04-28 17:43 -16.38038 -65.88246 40000 ft 488 kts 343°
2026-04-28 17:44 -16.31544 -65.90271 40000 ft 488 kts 343°
2026-04-28 17:44 -16.25029 -65.92300 40001 ft 488 kts 343°
2026-04-28 17:45 -16.18525 -65.94325 40000 ft 487 kts 343°
2026-04-28 17:45 -16.12065 -65.96335 40000 ft 487 kts 343°
2026-04-28 17:46 -16.05552 -65.98359 40002 ft 487 kts 343°
2026-04-28 17:46 -15.99053 -66.00378 40001 ft 487 kts 343°
2026-04-28 17:47 -15.92550 -66.02398 40001 ft 488 kts 343°
2026-04-28 17:47 -15.86046 -66.04416 40003 ft 488 kts 343°
2026-04-28 17:48 -15.79538 -66.06433 40001 ft 488 kts 343°
2026-04-28 17:48 -15.73035 -66.08449 40001 ft 488 kts 343°
2026-04-28 17:49 -15.66527 -66.10464 40001 ft 488 kts 343°
2026-04-28 17:49 -15.60027 -66.12475 40000 ft 488 kts 343°
2026-04-28 17:50 -15.53557 -66.14476 40001 ft 488 kts 343°
2026-04-28 17:50 -15.47043 -66.16490 40002 ft 488 kts 343°
2026-04-28 17:51 -15.40529 -66.18510 40001 ft 488 kts 343°
2026-04-28 17:51 -15.34071 -66.20539 40003 ft 488 kts 343°
2026-04-28 17:52 -15.27577 -66.22583 40000 ft 488 kts 343°
2026-04-28 17:52 -15.17839 -66.25639 40001 ft 488 kts 343°
2026-04-28 17:53 -15.11324 -66.27680 40003 ft 488 kts 343°
2026-04-28 17:53 -15.04835 -66.29711 40003 ft 488 kts 343°
2026-04-28 17:54 -14.98325 -66.31748 40002 ft 488 kts 343°
2026-04-28 17:54 -14.91832 -66.33779 40000 ft 488 kts 343°
2026-04-28 17:55 -14.85335 -66.35809 40003 ft 488 kts 343°
2026-04-28 17:55 -14.78865 -66.37830 39998 ft 488 kts 343°
2026-04-28 17:56 -14.72358 -66.39861 40000 ft 488 kts 343°
2026-04-28 17:56 -14.65860 -66.41889 40001 ft 488 kts 343°
2026-04-28 17:57 -14.59387 -66.43907 39999 ft 488 kts 343°
2026-04-28 17:57 -14.52853 -66.45944 40005 ft 488 kts 343°
2026-04-28 17:58 -14.46354 -66.47975 40003 ft 488 kts 343°
2026-04-28 17:58 -14.40160 -66.49913 40001 ft 488 kts 343°